Starlink 31994

operational
NORAD ID: 60588 Int'l Des: 2024-150 Owner: SPXS Country: US Constellation: starlink
LEOCIRCULAR

Starlink 31994について

説明を読み込み中...

リアルタイム位置

3D地球を読み込み中...

次回通過

高度履歴

Altitude vs Time

uPlot chart will show altitude changes over time

軌道要素

1 60588U 24150F 25260.07625611 -.00002511 00000-0 -72701-4 0 9994
2 60588 53.1629 33.2106 0001610 83.3428 276.7756 15.30191391 61387
Epoch: Sep 17, 2025 • Age: 24 hours

現在のステータス

高度 476.4 km
速度 7.63 km/s
衛星直下点 -1.14°S, 179.88°W
打ち上げ日 Aug 20, 2024
運用期間 1 years
タイプ internet

技術仕様

分類 Payload
質量 730.00 kg
乾燥質量 700.00 kg
総質量 730.00 kg
長さ 0.30 m
直径 4.10 m
スパン 29.00 m
形状 Box + pan
製造者 SPXS
バスタイプ Starlink V2M
フェーズステータス In Orbit
所有者/国 SPXS/US

大規模コンステレーション

Loading constellations...